Regional Weather Roundup
Issued by NWS

Home | Current Version | Previous Version | Text Only | Print | Product List | Glossary On
Versions: 1 2 3 4 5 6 7 8 9 10 11 12 13 14 15 16 17 18 19 20 21 22 23 24 25 26 27
000
ASUS45 KTFX 231810
RWRMT
MONTANA REGIONAL WEATHER ROUNDUP
NATIONAL WEATHER SERVICE GREAT FALLS MT
1200 PM MDT SAT SEP 23 2017

NOTE: "FAIR" INDICATES FEW OR NO CLOUDS BELOW 12000 FEET WITH NO
SIGNIFICANT WEATHER AND/OR OBSTRUCTIONS TO VISIBILITY.

MTZ001>007-043-231900-
WEST OF THE DIVIDE

CITY           SKY/WX    TMP DP  RH WIND       PRES   REMARKS
KALISPELL      CLOUDY    50  36  58 SE8       30.09S
MISSOULA       CLOUDY    46  37  71 W5        30.12F
BUTTE          CLOUDY    41  31  67 CALM      30.09S
MULLAN PASS    CLOUDY    35  31  85 CALM      30.08R
ANACONDA         N/A     41  28  60 N5        30.09S
DEER LODGE       N/A     45  30  57 E5        30.11F
EUREKA           N/A     46  36  66 CALM      30.09S
HAMILTON         N/A     46  32  57 S3        30.10F
LIBBY            N/A     46  39  76 CALM      30.09R
PLAINS           N/A     51  35  54 CALM      30.10R
$$

MTZ008-052>055-231900-
SOUTHWEST MONTANA

CITY           SKY/WX    TMP DP  RH WIND       PRES   REMARKS
BOZEMAN        CLOUDY    43  35  73 S5        30.09F
DILLON         PTSUNNY   43  32  65 CALM      30.06S
W YELLOWSTONE  MOSUNNY   39  25  56 MISG      30.04S
ENNIS          PTSUNNY   41  34  75 NW7       30.11S
THREE FORKS      N/A     44  35  70 CALM      30.08S
TWIN BRIDGES     N/A     45  32  60 CALM      30.05F
$$

MTZ009-010-012-014-046-048-049-054-231900-
EAST SLOPES AND CENTRAL MONTANA

CITY           SKY/WX    TMP DP  RH WIND       PRES   REMARKS
CUT BANK       MOSUNNY   44  34  67 E3        30.06S
GREAT FALLS    MOSUNNY   45  36  70 SW9       30.08F
MALMSTROM AFB  PTSUNNY   46  37  71 W8        30.09F
HELENA         CLOUDY    44  35  70 CALM      30.09F
BOWMANS CRNR     N/A     43  35  74 S12       30.05S
CHOTEAU          N/A     45  39  81 S3        30.08F
FAIRFIELD        N/A     43  35  75 S6        30.07S
POWER            N/A     42  35  76 SW6       30.07F
RAYNESFORD       N/A     45  37  72 SE6       30.08F
ULM            PTSUNNY   45  36  72 SW10      30.08F
$$

MTZ011-013-016-021-045-047-050-051-231900-
NORTH CENTRAL MONTANA

CITY           SKY/WX    TMP DP  RH WIND       PRES   REMARKS
HAVRE          CLOUDY    49  37  63 W5        30.10F
LEWISTOWN      PTSUNNY   42  37  82 NE3       30.09S
N BAR RANCH    CLOUDY    41  37  87 S8        30.11F
CHINOOK          N/A     48  39  71 E9        30.11F
DENTON           N/A     44  38  79 SE3       30.06F
GEYSER         PTSUNNY   42  38  84 CALM      30.08F
JUDITH GAP     CLOUDY    39  34  84 SW16      30.09S WCI  30
WINIFRED       PTSUNNY   44  38  81 NE6       30.09S
$$

MTZ017>020-022>027-061-062-231900-
NORTHEAST MONTANA

CITY           SKY/WX    TMP DP  RH WIND       PRES   REMARKS
GLASGOW        CLOUDY    49  37  63 S7        30.14S
JORDAN           N/A     48  39  71 E8        30.13S
SIDNEY         CLOUDY    49  40  71 N5        30.17R
WOLF POINT     CLOUDY    48  39  71 CALM      30.17R
MALTA          CLOUDY    46  41  81 MISG      30.14S
PLENTYWOOD       N/A     48  37  66 CALM      30.15S
POPLAR           N/A     48  37  66 CALM      30.18R
SCOBEY           N/A     48  36  63 NW2       30.12R
$$

MTZ028>42-056>058-231900-
SOUTHCENTRAL AND SOUTHEAST MONTANA

CITY           SKY/WX    TMP DP  RH WIND       PRES   REMARKS
BAKER          LGT RAIN  43  42  97 N6        30.13F
BILLINGS       CLOUDY    42  39  89 NE6       30.10S
LIVINGSTON     CLOUDY    40  34  79 E3        30.09F
MILES CITY     LGT RAIN  44  39  82 E7        30.13F
BIG TIMBER     CLOUDY    39  36  87 S3        30.13S
EKALAKA          N/A     42  38  86 E5        30.08S
HARLOWTON      PTSUNNY   40  36  87 MISG      30.09F
LAUREL           N/A     43  39  87 VRB3      30.11S
$$

REGIONAL REPORTS...DAKOTAS

CITY           SKY/WX    TMP DP  RH WIND       PRES   REMARKS
WILLISTON      CLOUDY    50  41  71 N3        30.16S
MINOT          CLOUDY    53  43  68 N7        30.12F
DICKINSON      CLOUDY    48  43  82 NE5       30.11F
BEACH          DRIZZLE   43  41  93 CALM      30.18S
CROSBY         CLOUDY    50  36  57 N6        30.16S
TIOGA          CLOUDY    50  43  76 N8        30.16R
WATFORD CITY   CLOUDY    48  41  76 CALM      30.15S
BISMARCK       CLOUDY    53  47  79 N12       30.10F
GRAND FORKS    CLOUDY    59  51  75 N13       30.06R
FARGO          CLOUDY    56  50  80 N8        30.06R
BUFFALO SD       N/A     46  41  82 N9        30.03F
RAPID CITY     CLOUDY    46  43  87 N15       30.07R
$$

REGIONAL REPORTS...WYOMING/IDAHO/WASHINGTON

CITY           SKY/WX    TMP DP  RH WIND       PRES   REMARKS
GILLETTE       LGT RAIN  41  40  96 N5        30.06R
SHERIDAN       CLOUDY    43  41  93 N8        30.08S
BUFFALO WY     CLOUDY    40  37  89 CALM      30.07F
CODY           CLOUDY    39  37  92 N6        30.08S
IDAHO FALLS    PTSUNNY   42  34  73 CALM      30.05F
SALMON         CLOUDY    47  32  56 CALM      30.08F
BOISE          MOSUNNY   51  40  65 VRB6      30.07F
SPOKANE        MOSUNNY   53  41  63 VRB5      30.09S
$$

REGIONAL REPORTS...ALBERTA

CITY           SKY/WX    TMP DP  RH WIND       PRES   REMARKS
EDMONTON       MOSUNNY   50  41  71 S10       30.05F
CALGARY        MOSUNNY   46  32  57 S12       30.04F
LETHBRIDGE     PTSUNNY   46  34  61 NE5       30.05F
MEDICINE HAT   PTSUNNY   48  37  66 CALM      30.09F
$$

REGIONAL REPORTS...SASKATCHEWAN

CITY           SKY/WX    TMP DP  RH WIND       PRES   REMARKS
SWIFT CURRENT  LGT RAIN  46  37  71 SW13      30.11
REGINA         PTSUNNY   46  34  61 NW3       30.14F
SASKATOON      PTSUNNY   50  41  71 VRB2      30.14S
$$




USA.gov is the U.S. government's official web portal to all federal, state and local government web resources and services.